Weather History for Denison, IA

Change the Weather History Date:

Saturday, April 6, 2013

  Actual Average Record
Temperature  
Mean Temperature 54 °F -  
Max Temperature 66 °F 53 °F 80 °F (2006)
Min Temperature 42 °F 34 °F 19 °F (2007)
Degree Days  
Heating Degree Days 11    
Growing Degree Days 4 (Base 50)    
Moisture  
Dew Point 40 °F    
Average Humidity 56    
Maximum Humidity 87    
Minimum Humidity 34    
Precipitation  
Precipitation 0.01 in - - ()
Sea Level Pressure  
Sea Level Pressure 29.66 in    
Wind  
Wind Speed 14 mph (WSW)    
Max Wind Speed 22 mph    
Max Gust Speed 32 mph    
Visibility 10 miles    
Events Rain    
Averages and records for this station are not official NWS values.
T = Trace of Precipitation, MM = Missing Value Source: NWS Daily Summary

Daily Weather History Graph

Daily Weather History Graph

Search for Another Location

Airport:

Trip Planner

Search our weather history database for the weather conditions in past years. The results will help you decide how hot, cold, wet, or windy it might be!

Date:

Astronomy

Apr. 06, 2013 Rise Set
Actual Time 6:55 AM CDT 7:52 PM CDT
Civil Twilight 6:26 AM CDT 8:21 PM CDT
Nautical Twilight 5:53 AM CDT 8:55 PM CDT
Astronomical Twilight 5:17 AM CDT 9:30 PM CDT
Moon 4:43 AM CDT (4/6) 4:19 PM CDT (4/6)
Length of Visible Light 13h 54m
Length of Day
12h 57m
Waning Crescent, 15% of the Moon is Illuminated
Apr 6
Waning Crescent
Apr 10
New
Apr 18
First Quarter
Apr 25
Full
May 2
Last Quarter

Hourly Weather History & Observations

Time (CDT) Temp. Windchill Dew Point Humidity Pressure Visibility Wind Dir Wind Speed Gust Speed Precip Events Conditions
12:15 AM 55.4 °F - 39.2 °F 54% 29.73 in 10.0 mi South 11.5 mph - N/A   Clear
12:35 AM 55.4 °F - 37.4 °F 51% 29.72 in 10.0 mi South 13.8 mph - N/A   Clear
12:55 AM 55.4 °F - 39.2 °F 54% 29.71 in 10.0 mi South 16.1 mph 23.0 mph N/A   Clear
1:15 AM 55.4 °F - 39.2 °F 54% 29.71 in 10.0 mi South 13.8 mph 23.0 mph N/A   Clear
1:35 AM 55.4 °F - 39.2 °F 54% 29.71 in 10.0 mi South 13.8 mph - N/A   Clear
1:55 AM 55.4 °F - 39.2 °F 54% 29.70 in 10.0 mi South 18.4 mph - N/A   Clear
2:15 AM 55.4 °F - 39.2 °F 54% 29.69 in 10.0 mi South 16.1 mph 24.2 mph N/A   Clear
2:35 AM 55.4 °F - 39.2 °F 54% 29.68 in 10.0 mi South 19.6 mph 26.5 mph N/A   Clear
2:55 AM 55.4 °F - 39.2 °F 54% 29.67 in 10.0 mi South 18.4 mph 25.3 mph N/A   Clear
3:15 AM 55.4 °F - 39.2 °F 54% 29.66 in 10.0 mi South 19.6 mph 26.5 mph N/A   Partly Cloudy
3:35 AM 55.4 °F - 39.2 °F 54% 29.66 in 10.0 mi South 17.3 mph 26.5 mph N/A   Partly Cloudy
3:55 AM 55.4 °F - 39.2 °F 54% 29.65 in 10.0 mi South 17.3 mph 25.3 mph N/A   Scattered Clouds
4:15 AM 55.4 °F - 39.2 °F 54% 29.64 in 10.0 mi South 19.6 mph 27.6 mph N/A   Partly Cloudy
4:35 AM 53.6 °F - 39.2 °F 58% 29.63 in 10.0 mi South 17.3 mph 26.5 mph N/A   Clear
4:55 AM 53.6 °F - 39.2 °F 58% 29.63 in 10.0 mi South 18.4 mph 25.3 mph N/A   Partly Cloudy
5:15 AM 53.6 °F - 39.2 °F 58% 29.62 in 10.0 mi South 17.3 mph 25.3 mph N/A   Scattered Clouds
5:35 AM 53.6 °F - 39.2 °F 58% 29.62 in 10.0 mi South 15.0 mph 21.9 mph N/A   Scattered Clouds
5:55 AM 53.6 °F - 41.0 °F 62% 29.61 in 10.0 mi South 16.1 mph 21.9 mph N/A   Mostly Cloudy
6:15 AM 53.6 °F - 41.0 °F 62% 29.61 in 10.0 mi South 18.4 mph 25.3 mph N/A   Mostly Cloudy
6:35 AM 51.8 °F - 39.2 °F 62% 29.61 in 10.0 mi South 17.3 mph 23.0 mph N/A   Partly Cloudy
6:55 AM 51.8 °F - 39.2 °F 62% 29.60 in 10.0 mi South 15.0 mph 23.0 mph N/A   Clear
7:15 AM 51.8 °F - 41.0 °F 67% 29.59 in 10.0 mi South 17.3 mph 25.3 mph N/A   Clear
7:35 AM 51.8 °F - 41.0 °F 67% 29.59 in 10.0 mi South 16.1 mph 23.0 mph N/A   Clear
7:55 AM 51.8 °F - 41.0 °F 67% 29.59 in 10.0 mi South 15.0 mph 24.2 mph N/A   Clear
8:15 AM 53.6 °F - 41.0 °F 62% 29.59 in 10.0 mi SSW 15.0 mph 25.3 mph N/A   Clear
8:35 AM 53.6 °F - 41.0 °F 62% 29.58 in 10.0 mi South 21.9 mph 28.8 mph N/A   Clear
8:55 AM 55.4 °F - 41.0 °F 58% 29.58 in 10.0 mi South 21.9 mph 32.2 mph N/A   Clear
9:15 AM 53.6 °F - 41.0 °F 62% 29.58 in 10.0 mi SSW 17.3 mph 25.3 mph N/A   Clear
9:35 AM 55.4 °F - 42.8 °F 63% 29.58 in 10.0 mi SSW 17.3 mph - N/A   Clear
9:55 AM 55.4 °F - 42.8 °F 63% 29.58 in 10.0 mi SSW 17.3 mph 23.0 mph N/A   Clear
10:15 AM 55.4 °F - 42.8 °F 63% 29.58 in 10.0 mi SW 17.3 mph - N/A   Clear
10:35 AM 57.2 °F - 42.8 °F 59% 29.58 in 10.0 mi WSW 13.8 mph 26.5 mph N/A   Clear
10:55 AM 55.4 °F - 42.8 °F 63% 29.58 in 10.0 mi WSW 17.3 mph - N/A   Clear
11:15 AM 55.4 °F - 42.8 °F 63% 29.59 in 10.0 mi West 13.8 mph 20.7 mph N/A   Clear
11:35 AM 57.2 °F - 42.8 °F 59% 29.58 in 10.0 mi West 15.0 mph - N/A   Clear
11:55 AM 55.4 °F - 39.2 °F 54% 29.59 in 10.0 mi NW 17.3 mph 25.3 mph N/A   Clear
12:15 PM 53.6 °F - 37.4 °F 54% 29.60 in 10.0 mi WNW 15.0 mph 20.7 mph N/A   Partly Cloudy
12:35 PM 50.0 °F - 41.0 °F 71% 29.61 in 6.0 mi West 13.8 mph - N/A   Haze
12:55 PM 46.4 °F 40.7 °F 41.0 °F 81% 29.62 in 4.0 mi WNW 12.7 mph 20.7 mph 0.01 in Rain Light Rain
1:15 PM 46.4 °F 40.7 °F 42.8 °F 87% 29.63 in 8.0 mi West 12.7 mph 18.4 mph N/A   Partly Cloudy
1:35 PM 48.2 °F - 42.8 °F 82% 29.63 in 9.0 mi WNW 12.7 mph - N/A   Partly Cloudy
1:55 PM 51.8 °F - 42.8 °F 71% 29.63 in 10.0 mi West 17.3 mph - N/A   Scattered Clouds
2:15 PM 53.6 °F - 42.8 °F 67% 29.63 in 10.0 mi West 13.8 mph 20.7 mph N/A   Mostly Cloudy
2:35 PM 55.4 °F - 42.8 °F 63% 29.63 in 10.0 mi West 12.7 mph - N/A   Partly Cloudy
2:55 PM 57.2 °F - 41.0 °F 55% 29.63 in 10.0 mi NW 9.2 mph 20.7 mph N/A   Partly Cloudy
3:15 PM 59.0 °F - 41.0 °F 51% 29.62 in 10.0 mi WNW 10.4 mph - N/A   Clear
3:35 PM 60.8 °F - 41.0 °F 48% 29.62 in 10.0 mi WNW 13.8 mph 23.0 mph N/A   Clear
3:55 PM 62.6 °F - 41.0 °F 45% 29.62 in 10.0 mi WNW 15.0 mph 25.3 mph N/A   Clear
4:15 PM 64.4 °F - 41.0 °F 42% 29.62 in 10.0 mi NW 18.4 mph 26.5 mph N/A   Clear
4:35 PM 62.6 °F - 41.0 °F 45% 29.63 in 10.0 mi NW 18.4 mph 28.8 mph N/A   Scattered Clouds
4:55 PM 64.4 °F - 41.0 °F 42% 29.64 in 10.0 mi NW 16.1 mph 24.2 mph N/A   Partly Cloudy
5:15 PM 66.2 °F - 41.0 °F 40% 29.64 in 10.0 mi NW 17.3 mph 26.5 mph N/A   Partly Cloudy
5:35 PM 66.2 °F - 39.2 °F 37% 29.65 in 10.0 mi NW 20.7 mph 28.8 mph N/A   Clear
5:55 PM 66.2 °F - 37.4 °F 35% 29.66 in 10.0 mi NW 20.7 mph 27.6 mph N/A   Clear
6:15 PM 66.2 °F - 37.4 °F 35% 29.67 in 10.0 mi NW 18.4 mph - N/A   Clear
6:35 PM 66.2 °F - 37.4 °F 35% 29.68 in 10.0 mi NW 18.4 mph 24.2 mph N/A   Clear
6:55 PM 64.4 °F - 35.6 °F 34% 29.69 in 10.0 mi NW 15.0 mph 21.9 mph N/A   Clear
7:15 PM 62.6 °F - 35.6 °F 37% 29.70 in 10.0 mi NW 12.7 mph 19.6 mph N/A   Clear
7:35 PM 60.8 °F - 35.6 °F 39% 29.70 in 10.0 mi NW 9.2 mph 15.0 mph N/A   Clear
7:55 PM 59.0 °F - 35.6 °F 42% 29.71 in 10.0 mi NW 8.1 mph - N/A   Scattered Clouds
8:15 PM 57.2 °F - 35.6 °F 44% 29.72 in 10.0 mi NNW 4.6 mph - N/A   Mostly Cloudy
8:35 PM 57.2 °F - 35.6 °F 44% 29.72 in 10.0 mi NNW 5.8 mph - N/A   Mostly Cloudy
8:55 PM 55.4 °F - 37.4 °F 51% 29.73 in 10.0 mi NNW 6.9 mph - N/A   Overcast
9:15 PM 55.4 °F - 37.4 °F 51% 29.74 in 10.0 mi North 3.5 mph - N/A   Mostly Cloudy
9:35 PM 53.6 °F - 37.4 °F 54% 29.75 in 10.0 mi Calm Calm - N/A   Partly Cloudy
9:55 PM 51.8 °F - 35.6 °F 54% 29.76 in 10.0 mi Calm Calm - N/A   Clear
10:15 PM 51.8 °F - 37.4 °F 58% 29.77 in 10.0 mi NE 4.6 mph - N/A   Clear
10:35 PM 50.0 °F - 37.4 °F 62% 29.77 in 10.0 mi Calm Calm - N/A   Clear
10:55 PM 46.4 °F - 37.4 °F 71% 29.78 in 10.0 mi Calm Calm - N/A   Clear
11:15 PM 44.6 °F 42.2 °F 37.4 °F 76% 29.79 in 10.0 mi NNE 4.6 mph - N/A   Clear
11:35 PM 42.8 °F - 35.6 °F 76% 29.79 in 10.0 mi Calm Calm - N/A   Clear
11:55 PM 46.4 °F - 39.2 °F 76% 29.79 in 10.0 mi Calm Calm - N/A   Clear